• In Hungary
  • List of Countries
  • For 7 days
  • Water Temperature
  • Satellite Maps
  • Weather Map
  • News
  • Weather Widgets
  • user-avatar
    Login

    Hourly Weather Zaharino

    Today, 26 May, Saturday

    Time Temperature Precipitation Wind Pressure Humidity
    00:00 +9°C° 0 mm 1 mps 758 mmHg 70%
    01:00 +8°C° 0 mm 1 mps 758 mmHg 72%
    02:00 +7°C° 0 mm 1 mps 758 mmHg 75%
    03:00 +8°C° 0 mm 1 mps 758 mmHg 73%
    04:00 +9°C° 0 mm 1 mps 759 mmHg 72%
    05:00 +9°C° 0 mm 0 mps 759 mmHg 70%
    06:00 +12°C° 0 mm 1 mps 759 mmHg 63%
    07:00 +14°C° 0 mm 1 mps 759 mmHg 56%
    08:00 +16°C° 0 mm 1 mps 760 mmHg 49%
    09:00 +19°C° 0 mm 1 mps 759 mmHg 45%
    10:00 +20°C° 0 mm 1 mps 759 mmHg 42%
    11:00 +21°C° 0 mm 1 mps 759 mmHg 38%
    12:00 +22°C° 0 mm 1 mps 759 mmHg 38%
    13:00 +22°C° 0 mm 1 mps 759 mmHg 38%
    14:00 +21°C° 0 mm 2 mps 759 mmHg 37%
    15:00 +21°C° 0 mm 2 mps 758 mmHg 40%
    16:00 +21°C° 0 mm 2 mps 758 mmHg 43%
    17:00 +21°C° 0 mm 2 mps 757 mmHg 46%
    18:00 +18°C° 0 mm 2 mps 757 mmHg 53%
    19:00 +16°C° 0 mm 2 mps 757 mmHg 60%
    20:00 +14°C° 0 mm 2 mps 757 mmHg 67%
    21:00 +13°C° 0 mm 2 mps 757 mmHg 69%
    22:00 +13°C° 0 mm 2 mps 757 mmHg 71%
    23:00 +12°C° 0 mm 2 mps 757 mmHg 73%

    Tomorrow, 27 May, Sunday

    Time Temperature Precipitation Wind Pressure Humidity
    00:00 +11°C° 0 mm 3 mps 757 mmHg 74%
    01:00 +11°C° 0 mm 3 mps 757 mmHg 75%
    02:00 +11°C° 0 mm 3 mps 756 mmHg 75%
    03:00 +11°C° 0 mm 3 mps 756 mmHg 75%
    04:00 +11°C° 0 mm 3 mps 756 mmHg 76%
    05:00 +12°C° 0 mm 4 mps 756 mmHg 76%
    06:00 +14°C° 0 mm 4 mps 755 mmHg 71%
    07:00 +15°C° 0 mm 4 mps 755 mmHg 66%
    08:00 +18°C° 0 mm 4 mps 755 mmHg 62%
    09:00 +20°C° 0 mm 5 mps 754 mmHg 58%
    10:00 +21°C° 0 mm 5 mps 754 mmHg 55%
    11:00 +22°C° 0 mm 5 mps 753 mmHg 51%
    12:00 +22°C° 0 mm 5 mps 753 mmHg 52%
    13:00 +23°C° 0 mm 4 mps 753 mmHg 53%
    14:00 +23°C° 0 mm 4 mps 752 mmHg 54%
    15:00 +22°C° 0.1 mm 4 mps 752 mmHg 57%
    16:00 +22°C° 0.1 mm 4 mps 752 mmHg 61%
    17:00 +21°C° 0.1 mm 3 mps 751 mmHg 64%
    18:00 +20°C° 0.1 mm 3 mps 752 mmHg 67%
    19:00 +18°C° 0.1 mm 3 mps 752 mmHg 70%
    20:00 +16°C° 0.1 mm 3 mps 752 mmHg 73%
    21:00 +14°C° 0 mm 3 mps 753 mmHg 69%
    22:00 +12°C° 0 mm 3 mps 753 mmHg 65%
    23:00 +10°C° 0 mm 3 mps 754 mmHg 62%

    Day after tomorrow, 28 May, Monday

    Time Temperature Precipitation Wind Pressure Humidity
    00:00 +9°C° 0 mm 2 mps 755 mmHg 61%
    01:00 +8°C° 0 mm 2 mps 755 mmHg 61%
    02:00 +7°C° 0 mm 2 mps 756 mmHg 61%
    03:00 +7°C° 0 mm 2 mps 756 mmHg 61%
    04:00 +8°C° 0 mm 2 mps 757 mmHg 61%
    05:00 +8°C° 0 mm 2 mps 757 mmHg 61%
    06:00 +10°C° 0 mm 2 mps 758 mmHg 54%
    07:00 +13°C° 0 mm 2 mps 758 mmHg 47%
    08:00 +14°C° 0 mm 2 mps 758 mmHg 41%
    09:00 +14°C° 0 mm 3 mps 758 mmHg 38%
    10:00 +16°C° 0 mm 3 mps 758 mmHg 36%
    11:00 +17°C° 0 mm 3 mps 758 mmHg 33%
    12:00 +18°C° 0 mm 3 mps 758 mmHg 33%
    13:00 +18°C° 0 mm 3 mps 758 mmHg 33%
    14:00 +19°C° 0 mm 3 mps 758 mmHg 33%
    15:00 +19°C° 0 mm 2 mps 758 mmHg 35%
    16:00 +19°C° 0 mm 2 mps 758 mmHg 37%
    17:00 +19°C° 0 mm 1 mps 757 mmHg 39%
    18:00 +16°C° 0 mm 1 mps 757 mmHg 45%
    19:00 +14°C° 0 mm 1 mps 757 mmHg 52%
    20:00 +11°C° 0 mm 0 mps 757 mmHg 58%
    21:00 +11°C° 0 mm 1 mps 757 mmHg 59%
    22:00 +11°C° 0 mm 1 mps 757 mmHg 60%
    23:00 +9°C° 0 mm 2 mps 758 mmHg 61%

    29 May, Tuesday

    Time Temperature Precipitation Wind Pressure Humidity
    00:00 +9°C° 0 mm 2 mps 757 mmHg 63%
    01:00 +8°C° 0 mm 2 mps 757 mmHg 65%
    02:00 +8°C° 0 mm 2 mps 757 mmHg 66%
    03:00 +8°C° 0 mm 2 mps 757 mmHg 66%
    04:00 +9°C° 0 mm 2 mps 757 mmHg 66%
    05:00 +10°C° 0 mm 2 mps 757 mmHg 66%
    06:00 +12°C° 0 mm 3 mps 756 mmHg 61%
    07:00 +14°C° 0 mm 3 mps 756 mmHg 55%
    08:00 +17°C° 0 mm 3 mps 755 mmHg 50%
    09:00 +19°C° 0 mm 3 mps 755 mmHg 47%
    10:00 +20°C° 0 mm 3 mps 754 mmHg 43%
    11:00 +22°C° 0 mm 3 mps 754 mmHg 40%
    12:00 +23°C° 0 mm 4 mps 753 mmHg 40%
    13:00 +23°C° 0 mm 4 mps 753 mmHg 40%
    14:00 +25°C° 0 mm 4 mps 752 mmHg 41%
    15:00 +25°C° 0 mm 3 mps 751 mmHg 44%
    16:00 +25°C° 0 mm 3 mps 751 mmHg 47%
    17:00 +24°C° 0 mm 3 mps 750 mmHg 50%
    18:00 +21°C° 0 mm 2 mps 750 mmHg 58%
    19:00 +19°C° 0 mm 2 mps 749 mmHg 65%
    20:00 +17°C° 0 mm 2 mps 749 mmHg 73%
    21:00 +16°C° 0 mm 2 mps 749 mmHg 75%
    22:00 +15°C° 0 mm 2 mps 749 mmHg 77%
    23:00 +14°C° 0 mm 2 mps 748 mmHg 79%

    30 May, Wednesday

    Time Temperature Precipitation Wind Pressure Humidity
    00:00 +14°C° 0 mm 2 mps 748 mmHg 80%
    01:00 +13°C° 0 mm 2 mps 748 mmHg 81%
    02:00 +12°C° 0 mm 2 mps 748 mmHg 83%
    03:00 +13°C° 0 mm 2 mps 748 mmHg 81%
    04:00 +13°C° 0 mm 3 mps 747 mmHg 80%
    05:00 +14°C° 0 mm 3 mps 747 mmHg 78%
    06:00 +17°C° 0 mm 3 mps 747 mmHg 72%
    07:00 +19°C° 0 mm 3 mps 747 mmHg 65%
    08:00 +21°C° 0 mm 3 mps 746 mmHg 59%
    09:00 +22°C° 0.1 mm 4 mps 746 mmHg 57%
    10:00 +23°C° 0.1 mm 4 mps 746 mmHg 56%
    11:00 +25°C° 0.1 mm 4 mps 746 mmHg 55%
    12:00 +25°C° 0.2 mm 4 mps 745 mmHg 53%
    13:00 +26°C° 0.2 mm 4 mps 745 mmHg 51%
    14:00 +26°C° 0.2 mm 3 mps 745 mmHg 49%
    15:00 +26°C° 0.1 mm 3 mps 745 mmHg 53%
    16:00 +25°C° 0.1 mm 3 mps 745 mmHg 56%
    17:00 +24°C° 0.1 mm 2 mps 744 mmHg 60%
    18:00 +23°C° 0.1 mm 2 mps 744 mmHg 66%
    19:00 +20°C° 0.1 mm 2 mps 744 mmHg 72%
    20:00 +19°C° 0.1 mm 2 mps 744 mmHg 78%
    21:00 +18°C° 0.2 mm 2 mps 744 mmHg 82%
    22:00 +17°C° 0.2 mm 2 mps 744 mmHg 86%
    23:00 +16°C° 0.2 mm 1 mps 744 mmHg 90%

    31 May, Thursday

    Time Temperature Precipitation Wind Pressure Humidity
    00:00 +15°C° 0.1 mm 1 mps 744 mmHg 91%
    01:00 +15°C° 0.1 mm 2 mps 744 mmHg 92%
    02:00 +14°C° 0.1 mm 2 mps 743 mmHg 92%
    03:00 +14°C° 0 mm 2 mps 743 mmHg 91%
    04:00 +15°C° 0 mm 2 mps 744 mmHg 90%
    05:00 +15°C° 0 mm 2 mps 744 mmHg 89%
    06:00 +17°C° 0.1 mm 3 mps 744 mmHg 84%
    07:00 +18°C° 0.1 mm 3 mps 744 mmHg 78%
    08:00 +20°C° 0.1 mm 3 mps 744 mmHg 72%
    09:00 +21°C° 0.2 mm 4 mps 744 mmHg 67%
    10:00 +21°C° 0.2 mm 4 mps 744 mmHg 62%
    11:00 +22°C° 0.2 mm 5 mps 744 mmHg 57%
    12:00 +22°C° 0.1 mm 5 mps 744 mmHg 52%
    13:00 +22°C° 0.1 mm 5 mps 744 mmHg 47%
    14:00 +22°C° 0.1 mm 5 mps 745 mmHg 43%
    15:00 +22°C° 0 mm 5 mps 745 mmHg 42%
    16:00 +21°C° 0 mm 5 mps 745 mmHg 42%
    17:00 +20°C° 0 mm 4 mps 745 mmHg 42%
    18:00 +18°C° 0 mm 4 mps 746 mmHg 48%
    19:00 +16°C° 0 mm 3 mps 746 mmHg 53%
    20:00 +13°C° 0 mm 3 mps 746 mmHg 59%
    21:00 +12°C° 0 mm 3 mps 747 mmHg 61%
    22:00 +10°C° 0 mm 2 mps 747 mmHg 63%
    23:00 +9°C° 0 mm 2 mps 748 mmHg 65%
    Show more